Tracking 17138 objects as of 8-July-2015
HD Live streaming from Space Station

METEOSAT 5 AKM

Track METEOSAT 5 AKM now!
METEOSAT 5 AKM is classified as:


NORAD ID: 21904
Int'l Code: 1991-015E
Perigee: 35,142.6 km
Apogee: 36,514.8 km
Inclination: 14.3 °
Period: 1,437.9 minutes
Semi major axis: 42199 km
RCS: 0.9471 m2 (medium)
Launch date: March 2, 1991
Source: European Space Agency (ESA)

Note: This is a ROCKET BODY
Your satellite tracking list
Your tracking list is empty





NASA's NSSDC Master Catalog

Two Line Element Set (TLE):
1 21904U 91015E   15186.35546182 -.00000354  00000-0  00000+0 0  9999
2 21904 014.2926 012.7184 0162591 127.5619 223.4295 01.00147165 76421

Source of the keplerian elements: AFSPC

N2YO: 268